• In Belgien
  • Länderverzeichnis
  • Für 7 Tage
  • Wassertemperatur
  • Satellitenkarten
  • Wetterkarte
  • Widgets
  • user-avatar
    Anmelden

    Stündliche Wetter Victoria

    Heute, 24 Juni, Samstag

    Zeit Temperatur Niederschläge Wind Luftdruck Luftfeuchtigkeit
    00:00 +6°C° 0 mm 1 m/S 750 mmHg 86%
    01:00 +5°C° 0 mm 1 m/S 750 mmHg 87%
    02:00 +5°C° 0 mm 1 m/S 750 mmHg 90%
    03:00 +5°C° 0 mm 1 m/S 750 mmHg 93%
    04:00 +4°C° 0 mm 1 m/S 750 mmHg 96%
    05:00 +4°C° 0 mm 1 m/S 750 mmHg 97%
    06:00 +4°C° 0 mm 1 m/S 750 mmHg 98%
    07:00 +4°C° 0 mm 1 m/S 751 mmHg 99%
    08:00 +6°C° 0 mm 1 m/S 751 mmHg 91%
    09:00 +8°C° 0 mm 1 m/S 752 mmHg 84%
    10:00 +10°C° 0 mm 1 m/S 752 mmHg 76%
    11:00 +11°C° 0 mm 1 m/S 752 mmHg 68%
    12:00 +12°C° 0 mm 1 m/S 752 mmHg 60%
    13:00 +13°C° 0 mm 1 m/S 751 mmHg 51%
    14:00 +12°C° 0 mm 1 m/S 751 mmHg 54%
    15:00 +12°C° 0 mm 1 m/S 751 mmHg 56%
    16:00 +11°C° 0 mm 1 m/S 751 mmHg 59%
    17:00 +10°C° 0 mm 1 m/S 751 mmHg 61%
    18:00 +10°C° 0 mm 1 m/S 752 mmHg 64%
    19:00 +8°C° 0 mm 0 m/S 752 mmHg 66%
    20:00 +7°C° 0 mm 0 m/S 752 mmHg 67%
    21:00 +7°C° 0 mm 0 m/S 752 mmHg 68%
    22:00 +7°C° 0 mm 0 m/S 752 mmHg 69%
    23:00 +7°C° 0 mm 1 m/S 752 mmHg 75%

    Morgen, 25 Juni, Sonntag

    Zeit Temperatur Niederschläge Wind Luftdruck Luftfeuchtigkeit
    00:00 +5°C° 0 mm 1 m/S 752 mmHg 82%
    01:00 +4°C° 0 mm 1 m/S 752 mmHg 88%
    02:00 +4°C° 0 mm 1 m/S 752 mmHg 91%
    03:00 +3°C° 0 mm 1 m/S 752 mmHg 93%
    04:00 +3°C° 0 mm 1 m/S 752 mmHg 95%
    05:00 +3°C° 0 mm 1 m/S 752 mmHg 96%
    06:00 +2°C° 0 mm 1 m/S 752 mmHg 96%
    07:00 +2°C° 0 mm 1 m/S 752 mmHg 97%
    08:00 +4°C° 0 mm 1 m/S 752 mmHg 88%
    09:00 +7°C° 0 mm 1 m/S 753 mmHg 80%
    10:00 +9°C° 0 mm 1 m/S 753 mmHg 71%
    11:00 +10°C° 0 mm 1 m/S 753 mmHg 70%
    12:00 +10°C° 0 mm 1 m/S 752 mmHg 68%
    13:00 +10°C° 0 mm 2 m/S 752 mmHg 67%
    14:00 +10°C° 0 mm 2 m/S 752 mmHg 67%
    15:00 +12°C° 0 mm 2 m/S 752 mmHg 67%
    16:00 +12°C° 0 mm 2 m/S 752 mmHg 67%
    17:00 +10°C° 0 mm 1 m/S 752 mmHg 76%
    18:00 +8°C° 0 mm 1 m/S 752 mmHg 85%
    19:00 +7°C° 0 mm 1 m/S 753 mmHg 94%
    20:00 +6°C° 0 mm 1 m/S 753 mmHg 95%
    21:00 +6°C° 0 mm 1 m/S 753 mmHg 96%
    22:00 +6°C° 0 mm 1 m/S 754 mmHg 98%
    23:00 +6°C° 0 mm 1 m/S 754 mmHg 98%

    übermorgen, 26 Juni, Montag

    Zeit Temperatur Niederschläge Wind Luftdruck Luftfeuchtigkeit
    00:00 +5°C° 0 mm 1 m/S 754 mmHg 98%
    01:00 +5°C° 0 mm 1 m/S 754 mmHg 98%
    02:00 +5°C° 0 mm 1 m/S 754 mmHg 99%
    03:00 +4°C° 0 mm 1 m/S 754 mmHg 99%
    04:00 +3°C° 0 mm 0 m/S 754 mmHg 99%
    05:00 +2°C° 0 mm 0 m/S 755 mmHg 99%
    06:00 +2°C° 0 mm 0 m/S 755 mmHg 99%
    07:00 +1°C° 0 mm 0 m/S 756 mmHg 99%
    08:00 +4°C° 0 mm 0 m/S 756 mmHg 93%
    09:00 +6°C° 0 mm 0 m/S 757 mmHg 87%
    10:00 +9°C° 0 mm 0 m/S 757 mmHg 81%
    11:00 +10°C° 0 mm 0 m/S 757 mmHg 72%
    12:00 +13°C° 0 mm 1 m/S 757 mmHg 63%
    13:00 +14°C° 0 mm 1 m/S 757 mmHg 54%
    14:00 +14°C° 0 mm 1 m/S 757 mmHg 57%
    15:00 +12°C° 0 mm 0 m/S 757 mmHg 61%
    16:00 +12°C° 0 mm 0 m/S 757 mmHg 64%
    17:00 +10°C° 0 mm 0 m/S 757 mmHg 68%
    18:00 +9°C° 0 mm 0 m/S 757 mmHg 72%
    19:00 +8°C° 0 mm 0 m/S 758 mmHg 76%
    20:00 +8°C° 0 mm 0 m/S 758 mmHg 76%
    21:00 +8°C° 0 mm 0 m/S 758 mmHg 77%
    22:00 +8°C° 0 mm 0 m/S 759 mmHg 77%
    23:00 +6°C° 0 mm 0 m/S 758 mmHg 84%

    27 Juni, Dienstag

    Zeit Temperatur Niederschläge Wind Luftdruck Luftfeuchtigkeit
    00:00 +4°C° 0 mm 0 m/S 758 mmHg 90%
    01:00 +3°C° 0 mm 0 m/S 758 mmHg 97%
    02:00 +2°C° 0 mm 0 m/S 758 mmHg 97%
    03:00 +1°C° 0 mm 0 m/S 757 mmHg 98%
    04:00 +1°C° 0 mm 0 m/S 757 mmHg 99%
    05:00 +1°C° 0 mm 0 m/S 758 mmHg 97%
    06:00 +1°C° 0 mm 0 m/S 758 mmHg 96%
    07:00 +2°C° 0 mm 0 m/S 758 mmHg 95%
    08:00 +4°C° 0 mm 0 m/S 758 mmHg 86%
    09:00 +7°C° 0 mm 0 m/S 759 mmHg 77%
    10:00 +10°C° 0 mm 0 m/S 759 mmHg 67%
    11:00 +12°C° 0 mm 1 m/S 758 mmHg 62%
    12:00 +13°C° 0 mm 1 m/S 758 mmHg 56%
    13:00 +14°C° 0 mm 1 m/S 757 mmHg 51%
    14:00 +13°C° 0 mm 1 m/S 757 mmHg 54%
    15:00 +12°C° 0 mm 0 m/S 757 mmHg 57%
    16:00 +11°C° 0 mm 0 m/S 756 mmHg 61%
    17:00 +9°C° 0 mm 0 m/S 757 mmHg 70%
    18:00 +7°C° 0 mm 0 m/S 757 mmHg 78%
    19:00 +6°C° 0 mm 1 m/S 757 mmHg 87%
    20:00 +6°C° 0 mm 1 m/S 757 mmHg 86%
    21:00 +6°C° 0 mm 1 m/S 757 mmHg 85%
    22:00 +6°C° 0 mm 1 m/S 758 mmHg 85%
    23:00 +6°C° 0 mm 1 m/S 758 mmHg 87%

    28 Juni, Mittwoch

    Zeit Temperatur Niederschläge Wind Luftdruck Luftfeuchtigkeit
    00:00 +5°C° 0 mm 1 m/S 757 mmHg 89%
    01:00 +5°C° 0 mm 1 m/S 757 mmHg 91%
    02:00 +5°C° 0 mm 1 m/S 757 mmHg 92%
    03:00 +5°C° 0 mm 1 m/S 757 mmHg 93%
    04:00 +5°C° 0 mm 1 m/S 757 mmHg 94%
    05:00 +5°C° 0 mm 1 m/S 757 mmHg 93%
    06:00 +5°C° 0 mm 1 m/S 757 mmHg 93%
    07:00 +5°C° 0 mm 1 m/S 758 mmHg 92%
    08:00 +6°C° 0 mm 1 m/S 758 mmHg 86%
    09:00 +8°C° 0 mm 1 m/S 758 mmHg 79%
    10:00 +8°C° 0 mm 0 m/S 758 mmHg 72%
    11:00 +10°C° 0 mm 0 m/S 757 mmHg 67%
    12:00 +11°C° 0 mm 0 m/S 757 mmHg 61%
    13:00 +13°C° 0 mm 0 m/S 756 mmHg 55%
    14:00 +13°C° 0 mm 0 m/S 756 mmHg 57%
    15:00 +13°C° 0 mm 0 m/S 756 mmHg 58%
    16:00 +12°C° 0 mm 0 m/S 756 mmHg 59%
    17:00 +9°C° 0 mm 0 m/S 756 mmHg 72%
    18:00 +6°C° 0 mm 0 m/S 756 mmHg 85%
    19:00 +2°C° 0 mm 0 m/S 756 mmHg 98%
    20:00 +2°C° 0 mm 0 m/S 757 mmHg 98%
    21:00 +2°C° 0 mm 0 m/S 757 mmHg 98%
    22:00 +2°C° 0 mm 0 m/S 757 mmHg 98%
    23:00 +3°C° 0 mm 0 m/S 757 mmHg 96%

    29 Juni, Donnerstag

    Zeit Temperatur Niederschläge Wind Luftdruck Luftfeuchtigkeit
    00:00 +5°C° 0 mm 1 m/S 757 mmHg 94%
    01:00 +5°C° 0 mm 1 m/S 757 mmHg 92%
    02:00 +5°C° 0 mm 1 m/S 756 mmHg 93%
    03:00 +5°C° 0 mm 1 m/S 756 mmHg 94%
    04:00 +4°C° 0 mm 1 m/S 756 mmHg 96%
    05:00 +4°C° 0 mm 1 m/S 757 mmHg 95%
    06:00 +4°C° 0 mm 1 m/S 757 mmHg 95%
    07:00 +4°C° 0 mm 1 m/S 757 mmHg 95%
    08:00 +6°C° 0 mm 1 m/S 757 mmHg 85%
    09:00 +8°C° 0 mm 1 m/S 757 mmHg 75%
    10:00 +9°C° 0 mm 2 m/S 757 mmHg 65%
    11:00 +12°C° 0 mm 2 m/S 757 mmHg 58%
    12:00 +13°C° 0 mm 2 m/S 756 mmHg 52%
    13:00 +15°C° 0 mm 2 m/S 756 mmHg 45%
    14:00 +15°C° 0 mm 2 m/S 756 mmHg 47%
    15:00 +15°C° 0 mm 2 m/S 756 mmHg 50%
    16:00 +15°C° 0 mm 1 m/S 756 mmHg 52%
    17:00 +14°C° 0 mm 2 m/S 756 mmHg 58%
    18:00 +12°C° 0 mm 2 m/S 757 mmHg 63%
    19:00 +10°C° 0 mm 2 m/S 757 mmHg 68%
    20:00 +9°C° 0 mm 2 m/S 757 mmHg 72%
    21:00 +8°C° 0 mm 2 m/S 758 mmHg 76%
    22:00 +8°C° 0 mm 2 m/S 758 mmHg 80%
    23:00 +7°C° 0 mm 2 m/S 758 mmHg 81%
    Mehr zeigen